Location: 相模原市立博物館
(35.5593°N, 139.3931°E)
Time: 13:53:16
(UTC+09:00)

ISS - Visible Passes

Search period start: 23 July 2017 00:00
Search period end: 02 August 2017 00:00
Orbit: 400 x 408 km, 51.6° (Epoch: 23 July)

Date Brightness Start Highest point End Pass type
(mag) Time Alt. Az. Time Alt. Az. Time Alt. Az.
23 Jul -0.8 02:50:31 10° NNW 02:52:52 18° NNE 02:55:12 10° ENE visible
23 Jul -2.5 19:28:18 10° S 19:30:50 21° SE 19:33:21 10° ENE visible
23 Jul -1.9 21:04:14 10° W 21:07:09 30° NW 21:10:05 10° NNE visible
24 Jul -0.3 01:59:01 10° N 02:00:19 12° NNE 02:01:38 10° NE visible
24 Jul -3.7 03:33:59 10° NW 03:37:15 79° NE 03:40:31 10° SE visible
24 Jul -3.3 20:11:35 10° WSW 20:14:48 60° NW 20:18:01 10° NE visible
24 Jul -0.2 21:51:15 10° NNW 21:51:50 10° NNW 21:52:25 10° NNW visible
25 Jul -2.3 02:41:51 10° NNW 02:44:55 37° NE 02:47:59 10° ESE visible
25 Jul -3.8 19:19:19 10° SW 19:22:31 60° SE 19:25:43 10° NE visible
25 Jul -0.6 20:57:12 10° WNW 20:59:15 15° NNW 21:01:18 10° N visible
26 Jul -0.8 01:54:22 14° ENE 01:54:22 14° ENE 01:55:03 10° E visible
26 Jul -3.3 03:27:32 22° W 03:29:00 34° SW 03:32:00 10° SSE visible
26 Jul -1.3 20:03:59 10° W 20:06:43 25° NW 20:09:30 10° NNE visible
28 Jul -0.6 19:57:04 10° WNW 19:58:46 13° NNW 20:00:29 10° N visible
